Retour au catalogue

STARLINK-2735

ActifCommunicationsVLEO
NORAD 48667·PAYLOAD·🇺🇸 United States

Lancé May 26, 2021 depuis Cape Canaveral Space Force Station

Loading…

Prochains Passages (prochaines 24 heures)

TLE

FraisSource: CelesTrak SupGP

Époque: Sep 14, 2026, 19:38 UTC

1 48667C 21044AF  26257.81854167 -.00030004  00000+0 -96487-3 0  2576
2 48667  53.1587 315.2542 0001316  75.9685 339.0533 15.31715948    16

Suivez STARLINK-2735 en temps réel avec AllMySat

Download on the App Store